EW5820 Weather Reports


time (UTC)temp
F
wind
direction
speed
knots
gust
knots
rain 1hr
in
rain 24hr
in
rain mn
in
humidity
%
barometer
mb
20220629044549 65 35 0.0 0.9 0.00 0.00 0.00 85 1019.7
20220629043055 66 34 0.0 0.9 0.00 0.00 0.00 85 1019.5
20220629041543 66 30 0.0 3.5 0.00 0.00 0.00 87 1019.5
20220629040044 66 17 0.0 0.0 0.00 0.00 0.00 91 1019.3
20220629034542 66 17 0.0 0.9 0.00 0.00 0.00 89 1019.0
20220629033044 66 18 0.0 0.9 0.00 0.00 0.00 90 1018.8
20220629031541 66 13 0.0 0.0 0.00 0.00 0.00 92 1018.6
20220629030041 66 13 0.0 0.0 0.00 0.00 0.00 92 1018.5
20220629024540 66 13 0.0 0.9 0.00 0.00 0.00 91 1018.2
20220629023041 67 14 0.0 0.9 0.00 0.00 0.00 90 1017.8
20220629021538 69 68 0.0 1.7 0.00 0.00 0.00 88 1017.8
20220629020036 71 332 0.0 0.9 0.00 0.00 0.00 84 1017.5
20220629014536 73 332 0.0 0.0 0.00 0.00 0.00 77 1017.4
20220629013035 74 332 0.0 0.0 0.00 0.00 0.00 74 1017.3
20220629011534 75 332 0.0 0.9 0.00 0.00 0.00 71 1017.3
20220629010038 76 26 0.0 0.9 0.00 0.00 0.00 66 1017.2
20220629004535 74 92 0.0 0.9 0.00 0.00 0.00 70 1017.2
20220629003032 75 103 0.0 0.9 0.00 0.00 0.00 69 1016.9
20220629001533 76 60 0.0 0.9 0.00 0.00 0.00 67 1016.8
20220629000034 76 65 0.9 3.5 0.00 0.00 0.00 68 1016.8
20220628234543 76 76 0.0 2.6 0.00 0.00 0.00 66 1016.7
20220628233030 78 63 0.0 3.5 0.00 0.00 0.00 62 1016.6
20220628231535 78 66 0.9 3.5 0.00 0.00 0.00 63 1016.3
20220628230038 76 285 0.0 3.5 0.00 0.00 0.00 60 1016.2
20220628224529 74 190 0.0 7.0 0.00 0.00 0.00 63 1016.4
20220628223033 72 65 5.2 15.6 0.00 0.00 0.00 65 1016.2
20220628221528 80 117 0.0 6.1 0.00 0.00 0.00 50 1016.0
20220628220025 82 257 3.5 10.4 0.00 0.00 0.00 45 1016.6
20220628214527 84 262 2.6 12.2 0.00 0.00 0.00 44 1016.9
20220628213029 83 225 3.5 9.6 0.00 0.00 0.00 43 1017.2
20220628211523 81 241 1.7 7.0 0.00 0.00 0.00 47 1017.3
20220628210017 81 310 4.3 11.3 0.00 0.00 0.00 44 1017.4
20220628204515 81 274 2.6 8.7 0.00 0.00 0.00 45 1017.6
20220628203024 80 340 2.6 9.6 0.00 0.00 0.00 46 1017.7
20220628201512 80 245 5.2 14.8 0.00 0.00 0.00 46 1017.8
20220628200011 81 297 4.3 11.3 0.00 0.00 0.00 45 1017.9
20220628194513 82 166 2.6 13.9 0.00 0.00 0.00 45 1018.1
20220628193007 81 207 3.5 9.6 0.00 0.00 0.00 47 1018.3
20220628191502 81 184 7.8 17.4 0.00 0.00 0.00 46 1018.6
20220628190101 81 210 5.2 11.3 0.00 0.00 0.00 47 1018.8
20220628184558 81 229 6.1 13.0 0.00 0.00 0.00 48 1019.0
20220628183059 79 183 4.3 13.0 0.00 0.00 0.00 51 1019.0
20220628181553 79 197 3.5 7.0 0.00 0.00 0.00 53 1019.2
20220628180049 78 208 3.5 7.8 0.00 0.00 0.00 57 1019.4
20220628174548 76 218 3.5 7.8 0.00 0.00 0.00 58 1019.7
20220628173052 75 173 1.7 5.2 0.00 0.00 0.00 60 1020.0
20220628171541 75 134 3.5 7.0 0.00 0.00 0.00 58 1020.2
20220628170038 74 248 0.9 6.1 0.00 0.00 0.00 68 1020.3
20220628164532 69 217 3.5 6.1 0.00 0.00 0.00 74 1020.3
20220628163031 66 219 4.3 10.4 0.00 0.00 0.00 80 1020.4
20220628161530 64 189 4.3 11.3 0.00 0.00 0.00 82 1020.3
20220628160033 65 190 1.7 13.9 0.00 0.00 0.00 79 1020.8
20220628154526 67 249 0.9 3.5 0.00 0.00 0.00 71 1020.4
20220628153037 69 280 3.5 9.6 0.00 0.00 0.00 65 1020.9
20220628151522 69 238 1.7 9.6 0.00 0.00 0.00 67 1020.6
20220628150028 67 207 1.7 10.4 0.00 0.00 0.00 71 1020.9
20220628144519 67 238 4.3 15.6 0.00 0.00 0.00 68 1020.9
20220628143017 68 263 5.2 14.8 0.00 0.00 0.00 62 1021.1
20220628141514 68 158 3.5 8.7 0.00 0.00 0.00 63 1021.4
20220628140025 68 285 2.6 9.6 0.00 0.00 0.00 64 1021.5
20220628134511 67 226 2.6 7.0 0.00 0.00 0.00 64 1021.4
20220628133015 67 187 1.7 7.8 0.00 0.00 0.00 64 1021.4
20220628131510 67 115 2.6 7.0 0.00 0.00 0.00 64 1021.4
20220628130009 67 214 2.6 7.8 0.00 0.00 0.00 63 1021.4
20220628124509 66 265 1.7 4.3 0.00 0.00 0.00 64 1021.3
20220628123014 66 269 0.9 4.3 0.00 0.00 0.00 64 1021.5
20220628121507 65 354 2.6 5.2 0.00 0.00 0.00 63 1021.5
20220628120008 65 271 1.7 5.2 0.00 0.00 0.00 65 1021.5
20220628114505 65 204 0.0 6.1 0.00 0.00 0.00 63 1021.4
20220628113006 65 282 0.0 3.5 0.00 0.00 0.00 64 1021.5
20220628111506 65 239 0.9 5.2 0.00 0.00 0.00 63 1021.3
20220628110002 65 209 0.9 6.1 0.00 0.00 0.00 63 1021.3
20220628104502 64 281 1.7 9.6 0.00 0.00 0.00 63 1021.3
20220628103001 64 249 2.6 10.4 0.00 0.00 0.00 63 1021.3
20220628101607 64 240 4.3 7.8 0.00 0.00 0.00 63 1021.3
20220628100124 64 200 1.7 10.4 0.00 0.00 0.00 62 1021.3
20220628094559 65 262 1.7 7.8 0.00 0.00 0.00 61 1021.2
20220628093058 64 251 2.6 7.8 0.00 0.00 0.00 61 1021.2
20220628091557 64 231 1.7 8.7 0.00 0.00 0.00 62 1021.2
20220628090058 64 217 2.6 7.0 0.00 0.00 0.00 63 1021.2
20220628084559 64 206 0.9 4.3 0.00 0.00 0.00 63 1021.2
20220628083056 64 214 1.7 5.2 0.00 0.00 0.00 63 1021.2
20220628081554 64 206 1.7 5.2 0.00 0.00 0.00 64 1021.3
20220628080052 64 168 1.7 7.0 0.00 0.00 0.00 63 1021.3
20220628074551 64 223 2.6 6.1 0.00 0.00 0.00 63 1021.3
20220628073047 64 186 1.7 7.0 0.00 0.00 0.00 62 1021.4
20220628071548 65 195 2.6 5.2 0.00 0.00 0.00 62 1021.4
20220628070043 65 172 2.6 6.1 0.00 0.00 0.00 60 1021.6
20220628064540 66 169 2.6 5.2 0.00 0.00 0.00 59 1021.6
20220628063050 67 206 1.7 6.1 0.00 0.00 0.00 56 1021.8
20220628061536 66 205 1.7 3.5 0.00 0.00 0.00 57 1021.9
20220628060034 67 205 1.7 4.3 0.00 0.00 0.00 57 1022.0
20220628054533 67 217 0.0 4.3 0.00 0.00 0.00 56 1022.1
20220628053033 67 197 0.9 3.5 0.00 0.00 0.00 57 1022.1
20220628051531 67 219 0.9 4.3 0.00 0.00 0.00 59 1022.2
20220628050026 67 224 0.9 3.5 0.00 0.00 0.00 59 1022.4